GW6421 Weather Reports


time (UTC)temp
F
wind
direction
speed
knots
gust
knots
rain 1hr
in
rain 24hr
in
rain mn
in
humidity
%
barometer
mb
20260508011523 58 101 0.0 0.9 0.00 0.00 0.00 81 1010.8
20260508011010 58 20 0.0 0.9 0.00 0.00 0.00 81 1010.8
20260508010509 58 20 0.0 1.7 0.00 0.00 0.00 81 1010.7
20260508010026 59 25 0.0 2.6 0.00 0.00 0.00 81 1010.8
20260508005510 59 35 0.9 3.5 0.00 0.00 0.00 81 1010.9
20260508005012 58 47 1.7 3.5 0.00 0.00 0.00 82 1010.9
20260508004509 58 46 0.9 3.5 0.00 0.00 0.00 82 1010.8
20260508004009 59 39 1.7 4.3 0.00 0.00 0.00 82 1010.8
20260508003504 59 15 1.7 4.3 0.00 0.00 0.00 82 1010.8
20260508003014 58 49 1.7 3.5 0.00 0.00 0.00 82 1010.9
20260508002507 59 34 0.9 4.3 0.00 0.00 0.00 82 1010.9
20260508002009 59 26 1.7 4.3 0.00 0.00 0.00 82 1011.1
20260508001519 58 20 2.6 4.3 0.00 0.00 0.00 83 1011.1
20260508001006 58 338 1.7 4.3 0.00 0.00 0.00 83 1011.2
20260508000514 58 26 1.7 5.2 0.00 0.00 0.00 84 1011.3
20260508000022 58 56 2.6 5.2 0.00 0.00 0.00 84 1011.3
20260507235509 58 47 2.6 5.2 0.00 0.00 0.00 84 1011.5
20260507235008 58 56 2.6 4.3 0.00 0.00 0.00 85 1011.6
20260507234535 58 52 1.7 4.3 0.00 0.00 0.00 85 1011.7
20260507234009 58 44 1.7 4.3 0.00 0.00 0.00 85 1011.7
20260507233509 57 43 1.7 4.3 0.00 0.00 0.00 86 1011.8
20260507233008 57 51 1.7 2.6 0.00 0.01 0.00 87 1011.8
20260507232508 57 72 0.9 2.6 0.00 0.03 0.00 88 1011.9
20260507232006 57 41 1.7 2.6 0.00 0.03 0.00 88 1012.1
20260507231518 57 30 0.0 1.7 0.00 0.04 0.00 89 1012.2
20260507231008 57 60 0.0 1.7 0.00 0.04 0.00 89 1012.3
20260507230507 57 60 0.0 1.7 0.00 0.04 0.00 89 1012.4
20260507230022 57 61 0.9 1.7 0.00 0.04 0.00 89 1012.5
20260507225512 57 67 0.9 1.7 0.00 0.04 0.00 89 1012.6
20260507225007 57 48 0.9 2.6 0.00 0.05 0.00 89 1012.6
20260507224524 57 58 0.9 2.6 0.00 0.05 0.00 89 1012.6
20260507224008 57 61 1.7 2.6 0.00 0.05 0.00 89 1012.7
20260507223513 57 71 0.9 2.6 0.00 0.05 0.00 88 1012.8
20260507223024 57 68 0.9 2.6 0.00 0.05 0.00 88 1012.7
20260507222509 57 56 0.0 1.7 0.00 0.05 0.00 88 1012.8
20260507222014 57 50 0.0 1.7 0.00 0.05 0.00 88 1012.9
20260507221513 57 30 0.9 1.7 0.00 0.06 0.00 88 1012.8
20260507221006 58 40 0.0 0.9 0.00 0.06 0.00 88 1012.9
20260507220507 58 38 0.0 0.9 0.00 0.06 0.00 88 1012.9
20260507220016 58 38 0.0 0.9 0.00 0.07 0.00 89 1012.9
20260507215509 58 38 0.0 0.9 0.00 0.07 0.07 88 1012.9
20260507215013 58 38 0.0 0.9 0.00 0.07 0.07 88 1012.9
20260507214521 58 38 0.0 0.9 0.00 0.07 0.07 89 1012.8
20260507214011 57 39 0.0 0.0 0.00 0.08 0.07 88 1013.0
20260507213512 58 39 0.0 0.0 0.00 0.08 0.07 88 1013.1
20260507213024 58 39 0.0 0.0 0.00 0.08 0.07 87 1013.1
20260507212511 58 39 0.0 0.9 0.00 0.08 0.07 87 1013.1
20260507212012 58 39 0.0 0.9 0.00 0.09 0.07 87 1013.0
20260507211526 58 39 0.0 0.9 0.00 0.09 0.07 87 1013.0
20260507211014 59 20 0.0 0.9 0.00 0.09 0.07 87 1013.0
20260507210515 59 19 0.9 0.9 0.00 0.10 0.07 86 1012.9
20260507210015 59 335 0.0 0.0 0.00 0.10 0.07 86 1013.0
20260507205507 59 335 0.0 0.9 0.00 0.10 0.07 85 1013.1
20260507205010 59 335 0.0 0.9 0.00 0.10 0.07 85 1013.1
20260507204517 59 335 0.0 0.9 0.00 0.10 0.07 85 1013.1
20260507204007 59 335 0.0 0.9 0.00 0.10 0.07 84 1013.1
20260507203508 60 335 0.0 0.0 0.00 0.10 0.07 83 1013.1
20260507203026 60 335 0.0 0.9 0.00 0.10 0.07 83 1013.1
20260507202506 60 335 0.0 0.9 0.00 0.10 0.07 83 1013.1
20260507202011 61 335 0.0 0.9 0.00 0.10 0.07 82 1013.0
20260507201531 61 335 0.0 0.9 0.00 0.10 0.07 82 1013.0
20260507201010 61 335 0.0 0.9 0.00 0.10 0.07 81 1013.0
20260507200510 61 335 0.0 1.7 0.00 0.10 0.07 81 1012.9
20260507200027 61 335 0.0 2.6 0.00 0.10 0.07 81 1012.8
20260507195508 61 353 0.0 2.6 0.00 0.10 0.07 81 1012.8
20260507195010 61 334 0.0 2.6 0.00 0.10 0.07 81 1012.7
20260507194521 61 7 0.9 2.6 0.00 0.10 0.07 82 1012.5
20260507194007 61 308 0.0 1.7 0.00 0.10 0.07 82 1012.5
20260507193507 61 336 0.0 0.9 0.00 0.10 0.07 82 1012.6
20260507193025 62 336 0.0 0.9 0.00 0.10 0.07 82 1012.7
20260507192508 62 336 0.0 0.9 0.00 0.10 0.07 81 1012.7
20260507192010 62 336 0.0 0.9 0.00 0.10 0.07 81 1012.8
20260507191524 62 335 0.0 0.9 0.00 0.10 0.07 81 1012.7
20260507191006 62 335 0.0 0.9 0.00 0.10 0.07 81 1012.7
20260507190511 63 337 0.0 0.9 0.00 0.10 0.07 80 1012.7
20260507190029 63 337 0.0 0.9 0.00 0.10 0.07 80 1012.6
20260507185507 63 337 0.0 1.7 0.00 0.10 0.07 79 1012.6
20260507185008 63 283 0.0 1.7 0.00 0.10 0.07 79 1012.7
20260507184528 63 280 0.0 1.7 0.00 0.10 0.07 78 1012.7
20260507184010 64 298 0.9 1.7 0.00 0.10 0.07 78 1012.7
20260507183510 64 293 0.0 2.6 0.00 0.10 0.07 78 1012.7
20260507183020 64 309 0.9 2.6 0.00 0.10 0.07 78 1012.7
20260507182508 64 281 0.9 1.7 0.00 0.10 0.07 78 1012.7
20260507182008 65 285 0.9 1.7 0.00 0.10 0.07 78 1012.8
20260507181522 65 304 0.0 1.7 0.00 0.10 0.07 78 1012.8
20260507181011 65 279 0.0 1.7 0.00 0.10 0.07 77 1012.8
20260507180510 66 307 0.0 1.7 0.00 0.10 0.07 77 1012.8
20260507180024 66 283 0.0 2.6 0.00 0.10 0.07 77 1012.7
20260507175509 66 276 0.9 2.6 0.00 0.10 0.07 77 1012.7
20260507175011 66 297 0.9 4.3 0.00 0.10 0.07 77 1012.7
20260507174532 66 281 0.9 4.3 0.00 0.10 0.07 77 1012.7
20260507174012 66 300 1.7 3.5 0.00 0.10 0.07 77 1012.7
20260507173509 66 292 2.6 3.5 0.00 0.10 0.07 77 1012.7
20260507173029 66 273 1.7 7.0 0.00 0.10 0.07 77 1012.7
20260507172508 66 262 0.9 7.0 0.00 0.10 0.07 76 1012.8
20260507172016 66 264 2.6 6.1 0.00 0.10 0.07 75 1012.8
20260507171527 67 264 2.6 6.1 0.00 0.10 0.07 74 1012.9
20260507171008 67 274 1.7 6.1 0.00 0.10 0.07 72 1013.0
20260507170510 67 289 2.6 6.1 0.00 0.10 0.07 70 1013.0
20260507170022 67 276 2.6 6.1 0.00 0.10 0.07 71 1012.9
20260507165509 67 281 2.6 6.1 0.00 0.10 0.07 71 1013.0
20260507165013 68 243 3.5 6.1 0.00 0.10 0.07 70 1012.9
20260507164526 68 248 2.6 6.1 0.00 0.10 0.07 70 1013.0
20260507164012 69 243 3.5 6.1 0.00 0.10 0.07 69 1012.8
20260507163509 69 281 2.6 7.0 0.00 0.10 0.07 67 1012.7
20260507163031 69 257 3.5 7.0 0.00 0.10 0.07 68 1012.8
20260507162511 69 287 3.5 6.1 0.00 0.10 0.07 67 1012.8
20260507162011 70 271 3.5 6.1 0.00 0.10 0.07 66 1012.8
20260507161529 70 238 3.5 6.1 0.00 0.10 0.07 66 1012.8
20260507161007 70 254 3.5 7.0 0.00 0.10 0.07 66 1012.9
20260507160511 70 285 3.5 7.0 0.00 0.10 0.07 66 1012.8
20260507160028 70 243 2.6 7.0 0.00 0.10 0.07 69 1012.8
20260507155510 70 256 3.5 6.1 0.00 0.10 0.07 70 1012.8
20260507155009 70 255 2.6 6.1 0.00 0.10 0.07 70 1012.8
20260507154521 70 241 3.5 6.1 0.00 0.10 0.07 69 1012.8
20260507154009 70 236 3.5 6.1 0.00 0.10 0.07 70 1012.8
20260507153508 69 285 2.6 7.8 0.00 0.10 0.07 70 1012.9
20260507153025 69 274 3.5 7.8 0.00 0.10 0.07 70 1012.8
20260507152511 70 259 1.7 7.0 0.00 0.10 0.07 72 1012.9
20260507152010 70 254 2.6 6.1 0.00 0.10 0.07 69 1013.0
20260507151527 70 233 2.6 7.8 0.00 0.10 0.07 70 1013.0
20260507151010 70 246 3.5 7.8 0.00 0.10 0.07 70 1013.0
20260507150516 70 232 2.6 7.8 0.00 0.10 0.07 71 1013.1
20260507150026 69 286 3.5 7.8 0.00 0.10 0.07 71 1013.1
20260507145510 70 262 3.5 7.8 0.00 0.10 0.07 70 1013.2
20260507145009 70 284 4.3 7.8 0.00 0.10 0.07 69 1013.3
20260507144520 70 235 3.5 7.8 0.00 0.10 0.07 70 1013.3
20260507144011 70 259 3.5 7.8 0.00 0.10 0.07 70 1013.3
20260507143511 69 293 2.6 7.0 0.00 0.10 0.07 71 1013.3
20260507143038 69 237 3.5 7.0 0.00 0.10 0.07 70 1013.2
20260507142508 69 273 3.5 7.0 0.00 0.10 0.07 71 1013.3
20260507142009 69 273 3.5 7.0 0.00 0.10 0.07 71 1013.3
20260507141538 69 289 3.5 8.7 0.00 0.10 0.07 71 1013.3
20260507141007 69 227 5.2 8.7 0.00 0.10 0.07 71 1013.5
20260507140510 69 259 5.2 7.8 0.00 0.10 0.07 71 1013.5
20260507140028 69 293 3.5 7.8 0.00 0.10 0.07 72 1013.5
20260507135510 69 283 4.3 7.8 0.00 0.10 0.07 71 1013.6
20260507135011 69 247 5.2 7.8 0.00 0.10 0.07 70 1013.7
20260507134528 69 285 3.5 6.1 0.00 0.10 0.07 71 1013.7
20260507134007 69 245 3.5 6.1 0.00 0.10 0.07 72 1013.8
20260507133511 69 220 4.3 8.7 0.00 0.10 0.07 71 1013.8
20260507133020 69 288 4.3 8.7 0.00 0.10 0.07 71 1013.9
20260507132507 69 290 4.3 7.0 0.00 0.10 0.07 70 1014.0
20260507132009 69 238 2.6 7.0 0.00 0.10 0.07 71 1014.1
20260507131523 69 285 2.6 7.8 0.00 0.10 0.07 71 1014.2
20260507131009 69 264 3.5 7.8 0.00 0.10 0.07 72 1014.2
20260507130511 69 264 2.6 6.1 0.00 0.10 0.07 72 1014.2
20260507130038 69 274 3.5 7.0 0.00 0.10 0.07 72 1014.3
20260507125513 69 266 3.5 7.0 0.00 0.10 0.07 72 1014.4
20260507125008 69 288 2.6 7.0 0.00 0.10 0.07 71 1014.5
20260507124526 69 279 3.5 9.6 0.00 0.10 0.07 73 1014.6
20260507124011 69 255 3.5 9.6 0.00 0.10 0.07 71 1014.7
20260507123511 69 307 4.3 7.0 0.00 0.10 0.07 72 1014.7
20260507123026 69 218 4.3 8.7 0.00 0.10 0.07 71 1014.7
20260507122508 69 225 4.3 8.7 0.00 0.10 0.07 71 1014.7
20260507122013 69 268 4.3 7.8 0.00 0.10 0.07 70 1014.7
20260507121523 69 226 3.5 6.1 0.00 0.10 0.07 72 1014.6
20260507121009 69 210 3.5 6.1 0.00 0.10 0.07 71 1014.7
20260507120511 69 264 2.6 6.1 0.00 0.10 0.07 74 1014.7
20260507120006 69 205 1.7 7.0 0.00 0.10 0.07 75 1014.7
20260507115504 68 241 4.3 7.0 0.00 0.10 0.07 72 1014.7
20260507115003 68 244 2.6 7.0 0.00 0.10 0.07 73 1014.7
20260507114509 68 256 2.6 7.0 0.00 0.10 0.07 74 1014.7
20260507114004 67 238 4.3 7.0 0.00 0.10 0.07 73 1014.7
20260507113509 67 233 4.3 7.0 0.00 0.10 0.07 73 1014.8
20260507113014 68 259 4.3 6.1 0.00 0.10 0.07 71 1014.8
20260507112510 68 262 3.5 6.1 0.00 0.10 0.07 73 1014.7
20260507112009 68 234 2.6 6.1 0.00 0.10 0.07 74 1014.9
20260507111517 68 238 2.6 5.2 0.00 0.10 0.07 74 1014.9
20260507111008 67 220 2.6 6.1 0.00 0.10 0.07 74 1015.0
20260507110509 67 258 3.5 6.1 0.00 0.10 0.07 73 1015.1
20260507110023 67 271 3.5 6.1 0.00 0.10 0.07 74 1015.0
20260507105508 67 233 3.5 6.1 0.00 0.10 0.07 73 1014.9
20260507105012 67 284 1.7 6.1 0.00 0.10 0.07 73 1014.9
20260507104507 67 251 3.5 6.1 0.00 0.10 0.07 74 1014.9
20260507104007 67 207 1.7 5.2 0.00 0.10 0.07 75 1014.9
20260507103505 67 228 1.7 6.1 0.00 0.10 0.07 74 1015.0
20260507103011 67 239 1.7 6.1 0.00 0.10 0.07 74 1015.0
20260507102505 67 229 1.7 6.1 0.00 0.10 0.07 74 1015.0
20260507102007 67 228 3.5 6.1 0.00 0.10 0.07 73 1015.1
20260507101519 68 269 1.7 5.2 0.00 0.10 0.07 73 1015.0
20260507101009 67 238 1.7 5.2 0.00 0.10 0.07 73 1015.1
20260507100508 67 283 2.6 5.2 0.00 0.10 0.07 74 1015.1
20260507100022 67 249 1.7 3.5 0.00 0.10 0.07 71 1015.1
20260507095510 67 257 1.7 5.2 0.00 0.10 0.07 71 1015.0
20260507095009 68 220 0.9 5.2 0.00 0.10 0.07 73 1015.0
20260507094524 68 252 2.6 6.1 0.00 0.10 0.07 73 1015.0
20260507094013 68 239 1.7 6.1 0.00 0.10 0.07 73 1015.1
20260507093508 68 246 3.5 6.1 0.00 0.10 0.07 71 1015.3
20260507093008 68 259 1.7 6.1 0.00 0.10 0.07 73 1015.3
20260507092504 68 236 2.6 6.1 0.00 0.10 0.07 72 1015.2
20260507092006 69 270 2.6 4.3 0.00 0.10 0.07 72 1015.1
20260507091514 69 218 0.9 2.6 0.00 0.10 0.07 70 1015.1
20260507091009 68 230 0.0 1.7 0.00 0.10 0.07 72 1015.1
20260507090505 68 82 0.9 2.6 0.00 0.10 0.07 71 1015.1
20260507090020 68 168 0.9 3.5 0.00 0.10 0.07 74 1015.2
20260507085509 67 153 1.7 5.2 0.00 0.10 0.07 74 1015.2
20260507085008 67 141 0.9 5.2 0.00 0.10 0.07 76 1015.3
20260507084524 67 226 3.5 6.1 0.00 0.10 0.07 75 1015.3
20260507084013 67 174 0.9 6.1 0.00 0.10 0.07 74 1015.4
20260507083508 67 251 2.6 5.2 0.00 0.10 0.07 76 1015.3
20260507083024 67 242 2.6 5.2 0.00 0.10 0.07 74 1015.3
20260507082506 68 251 2.6 5.2 0.00 0.10 0.07 73 1015.3
20260507082011 68 139 0.9 3.5 0.00 0.10 0.07 77 1015.3
20260507081512 67 254 0.9 3.5 0.00 0.10 0.07 76 1015.2
20260507081007 67 218 0.9 3.5 0.00 0.10 0.07 75 1015.2
20260507080505 67 187 0.9 3.5 0.00 0.10 0.07 76 1015.3
20260507080017 67 130 0.9 3.5 0.00 0.10 0.07 79 1015.2
20260507075505 66 259 0.9 3.5 0.00 0.10 0.07 77 1015.3
20260507075007 66 231 0.9 5.2 0.00 0.10 0.07 79 1015.3
20260507074520 66 184 1.7 5.2 0.00 0.10 0.07 79 1015.2
20260507074012 66 237 0.9 3.5 0.00 0.10 0.07 81 1015.2
20260507073510 65 117 0.9 4.3 0.00 0.10 0.07 82 1015.3
20260507073024 64 71 0.9 4.3 0.00 0.10 0.07 83 1015.4
20260507072509 65 260 0.9 2.6 0.00 0.10 0.07 82 1015.4
20260507072011 65 248 0.9 2.6 0.00 0.10 0.07 84 1015.3
20260507071533 64 281 0.9 3.5 0.00 0.10 0.07 84 1015.4
20260507071011 63 120 0.9 3.5 0.00 0.10 0.07 85 1015.5
20260507070512 63 106 1.7 3.5 0.00 0.10 0.07 85 1015.4
20260507070014 63 92 0.9 3.5 0.00 0.10 0.07 86 1015.3
20260507065504 63 80 0.9 3.5 0.00 0.10 0.07 86 1015.3
20260507065009 63 283 0.9 3.5 0.00 0.10 0.07 87 1015.1
20260507064531 62 106 0.9 5.2 0.00 0.10 0.07 87 1015.1
20260507064011 62 138 0.9 5.2 0.00 0.10 0.07 88 1015.1
20260507063508 62 245 0.0 3.5 0.00 0.10 0.07 90 1015.0
20260507063024 61 191 0.9 3.5 0.00 0.10 0.07 89 1014.9
20260507062516 61 134 0.0 4.3 0.00 0.10 0.07 91 1014.9
20260507062010 61 136 0.0 4.3 0.00 0.10 0.07 91 1014.9
20260507061524 61 94 0.9 2.6 0.00 0.10 0.07 91 1014.9
20260507061010 60 88 0.9 1.7 0.00 0.10 0.07 92 1014.9
20260507060508 60 20 0.9 2.6 0.00 0.10 0.07 92 1014.9
20260507060026 59 132 0.9 2.6 0.00 0.10 0.07 94 1014.7
20260507055508 59 115 0.9 3.5 0.00 0.10 0.07 94 1014.6
20260507055018 58 75 1.7 3.5 0.00 0.10 0.07 94 1014.6
20260507054516 58 77 1.7 2.6 0.00 0.10 0.07 94 1014.6
20260507054006 57 86 0.9 2.6 0.00 0.10 0.07 94 1014.6
20260507053506 57 76 0.9 2.6 0.00 0.10 0.07 94 1014.6
20260507053023 57 68 0.9 2.6 0.00 0.10 0.07 94 1014.7
20260507052509 56 55 0.9 2.6 0.00 0.11 0.07 94 1014.6
20260507052007 56 43 0.9 1.7 0.00 0.11 0.07 94 1014.6
20260507051524 56 68 0.9 0.9 0.00 0.11 0.07 94 1014.6
20260507051009 56 68 0.0 1.7 0.00 0.11 0.07 94 1014.6
20260507050514 56 68 0.9 1.7 0.00 0.11 0.07 94 1014.5
20260507050037 55 63 0.9 1.7 0.00 0.11 0.07 94 1014.5
20260507045515 55 40 0.9 1.7 0.00 0.10 0.06 94 1014.4
20260507045008 55 53 0.9 1.7 0.00 0.10 0.06 94 1014.3
20260507044529 55 58 0.9 1.7 0.00 0.10 0.06 94 1014.3
20260507044011 55 60 0.9 1.7 0.00 0.10 0.06 94 1014.3
20260507043507 55 68 0.9 1.7 0.00 0.10 0.06 94 1014.2
20260507043018 55 65 0.9 1.7 0.00 0.11 0.06 94 1014.2
20260507042507 55 37 0.9 1.7 0.00 0.11 0.06 94 1014.2
20260507042007 55 46 0.9 1.7 0.00 0.11 0.06 94 1014.1
20260507041526 55 41 0.9 0.9 0.00 0.11 0.06 94 1014.1
20260507041007 55 41 0.0 1.7 0.00 0.12 0.06 94 1014.0
20260507040509 55 41 0.9 1.7 0.00 0.13 0.06 94 1014.0
20260507040026 55 30 0.0 1.7 0.00 0.14 0.06 94 1014.1
20260507035507 55 33 0.9 1.7 0.00 0.14 0.06 94 1013.9
20260507035011 56 110 0.0 1.7 0.00 0.14 0.06 94 1013.8
20260507034526 56 110 0.0 1.7 0.00 0.14 0.06 94 1013.8
20260507034011 56 119 0.0 0.9 0.00 0.14 0.06 94 1013.8
20260507033509 56 120 0.0 0.9 0.00 0.14 0.06 94 1013.8
20260507033028 56 99 0.0 1.7 0.00 0.15 0.06 94 1013.7
20260507032510 56 76 0.0 2.6 0.00 0.16 0.06 94 1013.8
20260507032012 56 75 0.9 2.6 0.00 0.17 0.06 94 1013.8
20260507031517 56 103 0.9 2.6 0.00 0.18 0.06 94 1013.7
20260507031007 57 86 0.9 2.6 0.00 0.18 0.06 94 1013.8
20260507030511 57 136 0.0 1.7 0.00 0.19 0.06 94 1013.8
20260507030028 57 96 0.9 2.6 0.00 0.19 0.06 94 1013.8
20260507025507 57 141 0.0 2.6 0.00 0.19 0.06 94 1013.8
20260507025011 57 88 0.9 1.7 0.00 0.19 0.06 94 1013.9
20260507024528 57 113 0.0 1.7 0.00 0.19 0.06 94 1013.9
20260507024009 57 134 0.0 1.7 0.00 0.19 0.06 94 1013.9
20260507023509 57 116 0.9 1.7 0.00 0.19 0.06 94 1013.9
20260507023010 57 105 0.0 2.6 0.00 0.19 0.06 94 1014.0
20260507022505 58 127 0.0 2.6 0.00 0.19 0.06 94 1014.0
20260507022006 58 117 0.0 1.7 0.00 0.19 0.06 94 1014.0
20260507021517 58 115 0.9 2.6 0.00 0.19 0.06 94 1014.0
20260507021005 58 90 0.0 3.5 0.00 0.19 0.06 94 1014.0
20260507020506 58 161 0.0 3.5 0.00 0.19 0.06 94 1014.0
20260507020020 58 129 0.0 2.6 0.00 0.19 0.06 94 1014.0
20260507015511 59 140 0.9 2.6 0.00 0.19 0.06 94 1014.1
20260507015007 59 94 0.0 1.7 0.00 0.19 0.06 94 1014.0
20260507014525 59 123 0.0 2.6 0.00 0.19 0.06 94 1014.0
20260507014009 59 107 0.0 2.6 0.00 0.19 0.06 94 1014.0
20260507013507 59 129 0.0 1.7 0.00 0.19 0.06 94 1014.0
20260507013025 59 114 0.0 2.6 0.00 0.19 0.06 94 1014.0
20260507012508 59 108 0.0 2.6 0.00 0.19 0.06 94 1014.0
20260507012010 59 103 0.0 3.5 0.00 0.19 0.06 94 1014.1